Temp
-2 -2 -2 -2 -3 -3 -3 -3 -3 -3 -3 -3 -3 -3 -3 -3 -3 -3 -3 -4 -4 -4 -5 -5 -6 -7 -8
-3 -3 -4 -4 -4 -4 -4 -3 -3 -4 -4 -4 -4 -4 -4 -4 -4 -4 -4 -4 -5 -5 -6 -7 -8 -10 -10
-4 -4 -5 -6 -5 -5 -4 -5 -4 -5 -5 -5 -4 -4 -4 -5 -5 -4 -5 -5 -6 -7 -8 -9 -10 -11 -11
-5 -5 -6 -6 -5 -5 -5 -5 -5 -5 -5 -5 -5 -5 -5 -5 -5 -6 -7 -7 -7 -8 -9 -10 -11 -11 -12
-5 -6 -6 -5 -6 -5 -6 -5 -5 -5 -6 -6 -6 -6 -7 -7 -7 -7 -8 -8 -9 -10 -11 -11 -12 -12 -13
-6 -5 -5 -5 -6 -6 -6 -5 -5 -6 -5 -7 -6 -7 -8 -8 -8 -9 -9 -10 -11 -12 -12 -12 -13 -13 -14
-6 -6 -6 -6 -6 -6 -6 -6 -6 -6 -5 -6 -6 -8 -8 -9 -10 -10 -11 -11 -12 -13 -13 -13 -14 -14 -14
-6 -6 -6 -6 -6 -6 -6 -6 -6 -6 -6 -6 -7 -7 -9 -10 -11 -11 -12 -13 -13 -13 -14 -14 -14 -14 -15
-7 -7 -7 -7 -6 -7 -7 -7 -7 -7 -6 -7 -8 -7 -8 -10 -11 -12 -13 -14 -14 -14 -15 -15 -15 -15 -15
-7 -7 -7 -7 -7 -7 -7 -7 -7 -7 -7 -7 -8 -8 -7 -9 -11 -13 -14 -15 -15 -15 -15 -15 -15 -15 -15
-7 -7 -7 -7 -7 -7 -8 -8 -8 -9 -9 -9 -9 -10 -11 -11 -12 -13 -14 -15 -15 -15 -15 -15 -16 -16 -15
-8 -8 -8 -8 -8 -8 -9 -9 -9 -10 -10 -10 -10 -11 -12 -13 -13 -14 -15 -15 -15 -15 -15 -15 -16 -16 -17
-8 -8 -8 -9 -9 -9 -10 -10 -10 -10 -10 -11 -11 -13 -14 -14 -14 -15 -15 -14 -15 -15 -15 -16 -16 -17 -17
-9 -9 -9 -9 -10 -10 -10 -10 -11 -12 -12 -12 -13 -14 -14 -15 -16 -16 -16 -15 -15 -16 -16 -16 -17 -17 -17
-9 -9 -10 -11 -11 -10 -10 -11 -12 -12 -13 -15 -15 -15 -16 -16 -16 -16 -16 -16 -16 -16 -16 -16 -17 -17 -17
-10 -11 -11 -11 -11 -11 -11 -12 -13 -14 -14 -15 -16 -15 -16 -16 -17 -17 -16 -16 -16 -17 -17 -17 -16 -17 -18
-11 -11 -11 -11 -11 -11 -12 -13 -14 -15 -16 -16 -16 -16 -16 -15 -16 -18 -17 -17 -17 -17 -17 -17 -17 -17 -18
Height
3126 3126 3125 3124 3124 3124 3123 3121 3120 3115 3112 3109 3106 3103 3100 3096 3091 3086 3082 3077 3071 3065 3060 3056 3050 3043 3036
3118 3118 3120 3119 3118 3118 3116 3115 3111 3109 3105 3102 3099 3095 3091 3087 3082 3077 3071 3065 3060 3055 3049 3043 3037 3033 3027
3110 3110 3112 3112 3112 3110 3108 3105 3104 3101 3099 3096 3092 3087 3083 3078 3072 3065 3060 3054 3049 3043 3037 3030 3025 3020 3018
3102 3102 3102 3104 3103 3103 3101 3099 3096 3094 3092 3089 3084 3079 3073 3066 3061 3055 3049 3043 3037 3029 3024 3020 3016 3011 3007
3094 3095 3096 3096 3096 3095 3093 3091 3090 3086 3085 3080 3075 3069 3063 3058 3052 3046 3039 3031 3025 3020 3015 3009 3006 3001 2997
3087 3087 3087 3088 3087 3088 3086 3085 3083 3078 3076 3075 3066 3061 3056 3051 3044 3036 3028 3021 3016 3008 3005 3000 2995 2990 2986
3080 3079 3079 3080 3080 3079 3078 3077 3074 3068 3065 3063 3057 3052 3046 3041 3035 3028 3018 3011 3004 2999 2995 2990 2985 2980 2975
3073 3073 3072 3073 3073 3073 3071 3069 3066 3061 3056 3051 3045 3039 3036 3030 3024 3018 3010 3002 2996 2991 2985 2980 2975 2970 2967
3066 3066 3067 3067 3066 3066 3064 3062 3058 3053 3045 3040 3036 3029 3025 3022 3015 3008 3001 2994 2989 2983 2977 2972 2968 2962 2959
3061 3061 3059 3060 3060 3058 3055 3051 3047 3042 3035 3029 3026 3018 3012 3006 3004 2999 2995 2987 2981 2975 2971 2966 2961 2954 2950
3054 3054 3053 3053 3053 3050 3047 3042 3038 3032 3025 3018 3014 3008 3004 2999 2996 2990 2983 2977 2973 2969 2964 2960 2954 2946 2939
3048 3047 3047 3046 3043 3040 3037 3033 3028 3024 3019 3012 3006 3000 2995 2991 2985 2982 2975 2970 2966 2961 2956 2952 2946 2939 2932
3041 3041 3040 3038 3035 3032 3029 3027 3022 3016 3009 3003 2997 2993 2988 2982 2977 2973 2967 2964 2958 2954 2948 2943 2937 2931 2924
3035 3035 3033 3030 3027 3025 3023 3019 3016 3010 3002 2997 2991 2985 2980 2976 2972 2968 2962 2956 2951 2946 2939 2935 2930 2924 2917
3028 3027 3025 3022 3020 3017 3014 3011 3005 3001 2998 2992 2984 2979 2974 2971 2967 2961 2957 2951 2945 2937 2931 2926 2923 2917 2910
3021 3020 3019 3017 3014 3010 3007 3001 2998 2994 2989 2983 2978 2975 2973 2970 2964 2956 2950 2943 2937 2930 2924 2917 2914 2910 2904
3015 3014 3013 3011 3008 3003 2999 2995 2991 2986 2982 2976 2972 2968 2964 2960 2959 2952 2942 2936 2928 2924 2917 2912 2906 2902 2897
Wind_Speed
28 27 26 25 23 23 22 26 34 33 33 36 37 36 37 37 39 41 45 47 50 52 54 55 55 54 52
28 26 24 22 22 24 26 28 30 33 33 34 35 37 38 39 41 44 48 51 53 55 56 56 53 50 49
25 25 25 24 28 28 27 29 34 33 33 34 36 38 39 41 44 49 52 55 55 57 57 55 52 49 47
32 32 33 32 32 32 30 29 33 33 33 35 36 39 42 46 49 51 53 55 57 56 54 53 51 49 47
37 34 34 34 34 28 29 30 33 32 32 35 36 40 42 45 49 51 53 54 54 54 51 49 49 48 46
34 31 34 32 22 28 31 30 30 33 32 30 38 39 42 45 47 49 51 52 50 48 47 47 48 45 42
36 35 26 21 26 29 30 30 30 32 37 36 39 41 43 45 46 46 47 47 47 46 47 46 42 40 40
28 21 19 24 27 28 28 29 30 34 39 42 44 46 45 44 44 43 44 44 43 43 42 40 39 40 39
18 19 22 24 26 27 28 30 31 34 40 44 45 51 50 44 41 40 41 41 38 37 37 38 38 39 37
18 21 22 24 26 27 28 31 35 38 43 48 47 52 56 53 44 38 33 32 32 33 33 34 36 39 39
20 21 22 24 26 27 29 32 36 39 44 49 49 51 49 48 42 35 32 33 32 33 34 34 34 37 39
20 21 22 24 26 28 31 34 37 40 43 45 48 48 45 41 38 32 33 34 34 35 36 36 34 34 36
20 21 23 25 27 29 32 33 36 40 43 45 45 43 39 38 36 34 35 35 37 38 38 36 35 34 36
20 22 23 26 28 29 32 34 35 34 38 40 39 39 37 35 34 34 35 39 41 40 39 36 33 31 32
20 22 23 25 28 32 33 35 36 35 31 30 33 34 35 34 35 35 36 39 40 40 39 36 32 30 30
20 22 24 26 29 32 33 34 33 31 30 31 31 31 30 29 30 33 34 38 39 38 38 38 33 27 27
21 22 24 27 29 31 31 31 30 29 29 31 32 33 34 33 31 30 36 36 39 38 37 36 35 29 26
Wind_Direction
264 267 266 267 270 274 284 294 286 293 292 296 298 302 303 306 308 310 309 310 310 311 312 310 310 311 312
263 263 266 267 269 275 282 285 292 292 297 298 300 299 303 307 308 309 312 312 311 311 312 313 311 311 310
260 264 265 266 273 279 282 291 290 295 298 299 300 303 307 309 312 313 313 314 315 314 313 312 310 310 310
262 258 258 270 269 280 284 291 292 295 298 298 303 307 312 316 314 316 315 315 314 313 311 309 309 308 307
257 265 266 270 279 282 290 291 292 295 299 304 309 311 313 315 315 315 315 315 313 310 307 308 307 306 305
263 264 274 272 282 287 287 289 293 295 298 304 307 311 314 315 317 318 316 312 308 308 308 309 306 306 307
262 261 258 276 279 282 287 291 296 299 302 307 309 313 318 320 319 316 312 310 309 310 309 306 307 309 309
251 258 274 277 281 285 289 293 300 302 305 311 315 317 319 320 321 318 313 309 309 308 306 310 312 310 310
258 271 277 280 283 287 291 296 300 307 309 313 317 317 320 322 322 317 313 309 308 309 312 312 310 309 309
267 272 276 279 283 286 294 301 308 312 314 316 320 318 319 322 324 318 311 309 315 314 311 310 310 308 308
267 272 277 282 286 294 302 309 314 317 317 317 319 320 319 317 319 319 317 317 317 313 311 312 312 311 310
269 275 280 287 293 300 309 315 316 316 314 316 318 317 317 319 323 323 318 315 316 315 314 315 316 315 313
272 279 284 290 299 307 313 313 314 315 317 319 317 317 320 323 325 323 318 315 316 316 317 319 320 317 313
273 278 288 296 303 308 309 313 314 316 317 315 314 317 320 322 321 318 318 316 317 318 318 319 321 318 312
275 284 292 300 304 308 313 313 317 318 315 314 313 316 318 319 318 318 318 315 315 318 320 321 323 320 312
280 290 297 301 305 308 312 316 317 319 320 317 315 313 312 312 314 317 318 316 317 322 323 323 323 322 316
284 291 297 301 305 310 315 317 320 322 322 319 317 315 315 317 322 326 321 322 322 324 323 323 323 326 321